TimeAKDT,TemperatureF,Dew PointF,Humidity,Sea Level PressureIn,VisibilityMPH,Wind Direction,Wind SpeedMPH,Gust SpeedMPH,PrecipitationIn,Events,Conditions,WindDirDegrees,DateUTC
12:53 AM,46.0,43.0,89,30.32,10.0,Calm,Calm,-,N/A,,Overcast,0,2013-05-05 08:53:00
1:53 AM,46.0,43.0,89,30.30,10.0,Calm,Calm,-,N/A,,Overcast,0,2013-05-05 09:53:00
2:22 AM,44.6,42.8,93,30.29,10.0,Calm,Calm,-,N/A,,Overcast,0,2013-05-05 10:22:00
2:53 AM,46.0,42.1,86,30.28,10.0,Calm,Calm,-,N/A,,Overcast,0,2013-05-05 10:53:00
3:53 AM,45.0,43.0,93,30.27,10.0,Calm,Calm,-,N/A,,Overcast,0,2013-05-05 11:53:00
4:53 AM,45.0,42.1,90,30.26,10.0,Calm,Calm,-,N/A,,Overcast,0,2013-05-05 12:53:00
5:53 AM,45.0,43.0,93,30.25,10.0,Calm,Calm,-,N/A,,Overcast,0,2013-05-05 13:53:00
6:53 AM,46.0,42.1,86,30.24,10.0,Calm,Calm,-,N/A,,Overcast,0,2013-05-05 14:53:00
7:19 AM,46.4,42.8,87,30.23,10.0,Calm,Calm,-,N/A,,Overcast,0,2013-05-05 15:19:00
7:53 AM,46.0,42.1,86,30.22,10.0,Calm,Calm,-,N/A,,Overcast,0,2013-05-05 15:53:00
8:53 AM,46.9,43.0,86,30.21,10.0,Calm,Calm,-,N/A,,Overcast,0,2013-05-05 16:53:00
9:51 AM,51.8,44.6,76,30.18,10.0,Calm,Calm,-,N/A,,Overcast,0,2013-05-05 17:51:00
9:53 AM,51.1,45.0,80,30.19,10.0,Calm,Calm,-,N/A,,Overcast,0,2013-05-05 17:53:00
10:53 AM,53.1,46.0,77,30.17,10.0,WSW,5.8,-,N/A,,Mostly Cloudy,240,2013-05-05 18:53:00
11:03 AM,53.6,46.4,77,30.16,10.0,SW,5.8,-,N/A,,Scattered Clouds,230,2013-05-05 19:03:00
11:53 AM,55.0,46.0,72,30.15,10.0,WSW,8.1,-,N/A,,Clear,240,2013-05-05 19:53:00
12:53 PM,57.0,46.9,69,30.13,10.0,WSW,6.9,-,N/A,,Clear,240,2013-05-05 20:53:00
1:53 PM,55.9,46.9,72,30.12,10.0,SW,9.2,-,N/A,,Clear,220,2013-05-05 21:53:00
2:53 PM,55.0,46.0,72,30.10,10.0,Variable,5.8,-,N/A,,Clear,0,2013-05-05 22:53:00
3:53 PM,53.1,46.0,77,30.08,10.0,SSW,8.1,-,N/A,,Clear,200,2013-05-05 23:53:00
4:53 PM,52.0,45.0,77,30.07,10.0,SSW,9.2,-,N/A,,Clear,200,2013-05-06 00:53:00
5:53 PM,48.9,44.1,83,30.05,10.0,South,6.9,-,N/A,,Clear,190,2013-05-06 01:53:00
6:21 PM,48.2,44.6,87,30.04,10.0,SW,8.1,-,N/A,,Partly Cloudy,220,2013-05-06 02:21:00
6:34 PM,46.4,44.6,93,30.04,10.0,SSW,9.2,-,N/A,,Mostly Cloudy,200,2013-05-06 02:34:00
6:53 PM,46.0,44.1,93,30.04,10.0,Variable,5.8,-,N/A,,Overcast,0,2013-05-06 02:53:00
7:41 PM,44.6,42.8,93,30.03,10.0,SW,6.9,-,N/A,,Overcast,220,2013-05-06 03:41:00
7:53 PM,45.0,43.0,93,30.03,10.0,SSW,5.8,-,N/A,,Overcast,200,2013-05-06 03:53:00
8:48 PM,44.6,42.8,93,30.03,10.0,South,4.6,-,N/A,,Overcast,170,2013-05-06 04:48:00
8:53 PM,44.1,42.1,93,30.03,10.0,South,4.6,-,N/A,,Overcast,190,2013-05-06 04:53:00
9:53 PM,44.1,42.1,93,30.04,10.0,South,4.6,-,N/A,,Overcast,190,2013-05-06 05:53:00
10:53 PM,44.1,42.1,93,30.04,10.0,SSW,3.5,-,N/A,,Overcast,210,2013-05-06 06:53:00
11:53 PM,43.0,41.0,93,30.04,10.0,South,4.6,-,N/A,,Overcast,180,2013-05-06 07:53:00